Isola 2000, France 16 day weather forecast

Slopes altitude range 1800 m - 2610m

Number of lifts: 22 Pistes: 120km

In some cases the lift and piste totals shown are for the ski domain (e.g. Three Valleys) rather than individual resort (e.g. Courchevel)

Overview

The 16 day weather forecast is fully updated 4 times every day.

    • Wed 26 JUN 2019
    • Wed 26
    • 23C 33C
    • Thu 27 JUN 2019
    • Thu 27
    • 25C 35C
    • Fri 28 JUN 2019
    • Fri 28
    • 26C 36C
    • Sat 29 JUN 2019
    • Sat 29
    • 23C 31C
    • Sun 30 JUN 2019
    • Sun 30
    • 22C 29C
    • Mon 01 JUL 2019
    • Mon 01
    • 22C 30C
    • Tue 02 JUL 2019
    • Tue 02
    • 20C 28C
    • Wed 03 JUL 2019
    • Wed 03
    • 20C 26C
    • Thu 04 JUL 2019
    • Thu 04
    • 19C 26C
    • Fri 05 JUL 2019
    • Fri 05
    • 20C 29C
    • Sat 06 JUL 2019
    • Sat 06
    • 21C 30C
    • Sun 07 JUL 2019
    • Sun 07
    • 18C 28C
    • Mon 08 JUL 2019
    • Mon 08
    • 19C 28C
    • Tue 09 JUL 2019
    • Tue 09
    • 21C 29C
    • Wed 10 JUL 2019
    • Wed 10
    • 22C 30C
    • Thu 11 JUL 2019
    • Thu 11
    • 21C 28C

Date:

Time Type 0°C level Temp Chill Snow Cloud Speed Gust Dir Press
3:00 4656m 18°C 18_5 0cm 0% 5mph 5mph 1023mB
6:00 4647m 18°C 18_3 0cm 0% 3mph 3mph 1023mB
9:00 4655m 23°C 23_4 0cm 0% 4mph 2mph 1023mB
12:00 4706m 33°C 33_5 0cm 0% 5mph 6mph 1023mB
15:00 4642m 34°C 34_7 0cm 1% 7mph 6mph 1022mB
18:00 4691m 34°C 34_4 0cm 34% 4mph 5mph 1022mB
21:00 4643m 21°C 21_5 0cm 97% 5mph 5mph 1024mB
0:00 4688m 20°C 20_6 0cm 49% 6mph 6mph 1023mB
3:00 4603m 20°C 20_5 0cm 2% 5mph 6mph 1022mB
6:00 4637m 20°C 20_3 0cm 1% 3mph 4mph 1021mB
9:00 4659m 25°C 25_4 0cm 0% 4mph 4mph 1021mB
12:00 4552m 35°C 35_5 0cm 0% 5mph 10mph 1020mB
15:00 4586m 35°C 35_6 0cm 0% 6mph 7mph 1018mB
18:00 4631m 35°C 35_3 0cm 0% 3mph 4mph 1017mB
21:00 4597m 23°C 23_6 0cm 0% 6mph 7mph 1018mB
0:00 4597m 22°C 22_7 0cm 0% 7mph 7mph 1017mB
3:00 4648m 22°C 22_7 0cm 0% 7mph 7mph 1016mB
6:00 4691m 21°C 21_6 0cm 0% 6mph 6mph 1015mB
9:00 4660m 26°C 26_3 0cm 0% 3mph 4mph 1015mB
12:00 4600m 36°C 36_8 0cm 0% 8mph 7mph 1014mB
15:00 4559m 35°C 35_7 0cm 24% 7mph 7mph 1013mB
18:00 4679m 35°C 35_3 0cm 28% 3mph 4mph 1013mB
21:00 4745m 21°C 21_4 0cm 0% 4mph 4mph 1015mB
0:00 4690m 20°C 20_5 0cm 0% 5mph 6mph 1015mB
3:00 4691m 20°C 20_6 0cm 69% 6mph 7mph 1015mB
6:00 4772m 20°C 20_4 0cm 77% 4mph 7mph 1016mB
9:00 4838m 24°C 24_3 0cm 6% 3mph 3mph 1017mB
12:00 4819m 31°C 31_7 0cm 26% 7mph 7mph 1016mB
15:00 4756m 28°C 28_4 0cm 98% 4mph 5mph 1016mB
18:00 4825m 28°C 28_4 0cm 98% 4mph 5mph 1016mB
21:00 4801m 19°C 19_2 0cm 33% 2mph 3mph 1018mB
0:00 4738m 18°C 18_3 0cm 62% 3mph 3mph 1018mB
3:00 4771m 18°C 18_4 0cm 93% 4mph 5mph 1018mB
6:00 4708m 18°C 18_1 0cm 73% 1mph 2mph 1019mB
9:00 4727m 22°C 22_4 0cm 7% 4mph 3mph 1019mB
12:00 4775m 29°C 29_5 0cm 27% 5mph 6mph 1019mB
15:00 4715m 30°C 30_7 0cm 27% 7mph 6mph 1018mB
18:00 4648m 30°C 30_4 0cm 15% 4mph 4mph 1018mB
21:00 4643m 19°C 19_3 0cm 26% 3mph 3mph 1019mB
0:00 4594m 19°C 19_3 0cm 63% 3mph 4mph 1019mB
3:00 4508m 18°C 18_4 0cm 12% 4mph 4mph 1018mB
6:00 4485m 18°C 18_1 0cm 6% 1mph 1mph 1019mB
9:00 4494m 22°C 22_3 0cm 69% 3mph 3mph 1018mB
12:00 4512m 30°C 30_6 0cm 70% 6mph 7mph 1017mB
15:00 4577m 30°C 30_7 0cm 24% 7mph 7mph 1016mB
18:00 4458m 30°C 30_2 0cm 15% 2mph 2mph 1016mB
21:00 4415m 19°C 19_3 0cm 100% 3mph 4mph 1018mB
0:00 4306m 17°C 17_6 0cm 100% 6mph 6mph 1017mB
3:00 4356m 16°C 16_4 0cm 100% 4mph 5mph 1016mB
6:00 4353m 16°C 16_2 0cm 60% 2mph 2mph 1016mB
9:00 4365m 20°C 20_4 0cm 0% 4mph 3mph 1015mB
12:00 4366m 28°C 28_7 0cm 0% 7mph 6mph 1014mB
15:00 4317m 28°C 28_2 0cm 76% 2mph 4mph 1013mB
18:00 4342m 27°C 27_2 0cm 88% 2mph 3mph 1014mB
21:00 4129m 17°C 17_4 0cm 100% 4mph 4mph 1016mB
0:00 4219m 16°C 16_4 0cm 100% 4mph 4mph 1015mB
3:00 4184m 16°C 16_4 0cm 35% 4mph 4mph 1015mB
6:00 4143m 15°C 15_2 0cm 18% 2mph 2mph 1016mB
9:00 4201m 20°C 20_5 0cm 0% 5mph 4mph 1016mB
12:00 4277m 26°C 26_5 0cm 9% 5mph 5mph 1016mB
15:00 4183m 25°C 25_4 0cm 100% 4mph 5mph 1015mB
18:00 4147m 25°C 25_1 0cm 100% 1mph 2mph 1015mB
21:00 4221m 18°C 18_1 0cm 100% 1mph 2mph 1017mB
0:00 4209m 16°C 16_4 0cm 87% 4mph 5mph 1017mB
3:00 4169m 15°C 15_5 0cm 35% 5mph 5mph 1016mB
6:00 4232m 15°C 15_2 0cm 18% 2mph 2mph 1017mB
9:00 4319m 19°C 19_4 0cm 0% 4mph 3mph 1017mB
12:00 4380m 26°C 26_5 0cm 18% 5mph 6mph 1017mB
15:00 4433m 25°C 25_5 0cm 33% 5mph 6mph 1016mB
18:00 4481m 25°C 25_4 0cm 17% 4mph 5mph 1016mB
21:00 4431m 17°C 17_3 0cm 0% 3mph 4mph 1017mB
0:00 4395m 16°C 16_4 0cm 0% 4mph 5mph 1017mB
3:00 4345m 15°C 15_4 0cm 0% 4mph 5mph 1017mB
6:00 4374m 15°C 15_2 0cm 0% 2mph 2mph 1018mB
9:00 4391m 20°C 20_4 0cm 0% 4mph 4mph 1018mB
12:00 4447m 29°C 29_7 0cm 0% 7mph 8mph 1017mB
15:00 4412m 29°C 29_4 0cm 0% 4mph 11mph 1016mB
18:00 4557m 29°C 29_3 0cm 0% 3mph 4mph 1016mB
21:00 4623m 19°C 19_6 0cm 0% 6mph 7mph 1017mB
0:00 4521m 18°C 18_6 0cm 1% 6mph 7mph 1017mB
Afternoon 0mm 0 4757m 30°C 30_9 0cm 0% 9mph 16mph 1014mB
Morning 0mm 0 5058m 18°C 18_6 0cm 0% 6mph 6mph 1016mB
Afternoon 0.0208333mm 0 4963m 28°C 28_6 0cm 13% 6mph 8mph 1019mB
Morning 0mm 0 4633m 16°C 16_3 0cm 0% 3mph 4mph 1018mB
Afternoon 0.0208333mm 0.0625 4529m 28°C 28_7 0cm 43% 7mph 6mph 1017mB
Morning 0mm 0 4546m 18°C 18_3 0cm 0% 3mph 3mph 1017mB
Afternoon 0mm 0 4511m 29°C 29_8 0cm 0% 8mph 9mph 1016mB
Morning 0mm 0 4259m 18°C 18_5 0cm 0% 5mph 5mph 1017mB
Afternoon 0.0208333mm 0.125 4551m 30°C 30_6 0cm 33% 6mph 12mph 1015mB
Morning 0mm 0 4445m 18°C 18_5 0cm 0% 5mph 6mph 1014mB
Afternoon 0.729167mm 1.5 4041m 28°C 28_3 0cm 19% 3mph 8mph 1012mB
Morning 0.104167mm 0.375 4024m 16°C 16_6 0cm 19% 6mph 6mph 1009mB

16 day outlook at a glance

Forecast issued: 6/26/2019 7:58:36 AM

Chat

Your comments and questions. In a resort? Let us know what it's like!


Characters left 250

For terms and conditions see Readers Comments on the Cookie and privacy policy page.